Location: Squamish
(49.7000°N, 123.1500°W)
Time: 06:32:44
(UTC-07:00)

Daily predictions for brighter satellites

Satellite Brightness Start Highest point End
(mag) Time Altitude Azimuth Time Altitude Azimuth Time Altitude Azimuth
Sich 1 Rocket 3.8 20:59:08 10° N 21:03:35 58° ENE 21:08:03 10° SSE
Cosmos 2263 Rocket 3.1 20:58:41 10° NW 21:04:03 50° WSW 21:09:24 10° S
Cosmos 1782 Rocket 4.2 21:02:36 10° N 21:06:43 38° ENE 21:10:50 10° SE
Cosmos 1733 Rocket 3.7 21:03:13 10° NNW 21:07:38 61° W 21:12:01 10° S
Cosmos 1825 3.8 21:04:44 10° NNW 21:08:17 37° W 21:11:49 10° SSW
Envisat 3.0 21:03:27 10° SSE 21:08:31 88° E 21:13:38 10° NNW
Helios 1A 3.2 21:05:09 10° S 21:09:24 76° WSW 21:13:40 10° NNW
Cosmos 1408 4.4 21:06:08 10° NNW 21:09:30 34° W 21:12:49 10° SSW
USA 234 3.3 21:03:01 10° ESE 21:09:35 88° SSW 21:16:11 10° WNW
SAR-Lupe-1 4.1 21:06:52 10° SSE 21:10:28 88° WSW 21:14:05 10° NNW
Okean 1-7 4.1 21:11:28 10° SSE 21:15:12 28° E 21:18:58 10° NNE
Cosmos 1867 4.2 21:10:01 10° NW 21:15:21 53° WSW 21:20:37 10° SSE
Cosmos 2084 4.0 21:15:17 10° NNW 21:18:54 40° NE 21:22:34 10° ESE
Cosmos 1939 Rocket 2.9 21:15:49 10° SSE 21:19:50 86° WSW 21:23:50 10° NNW
CZ-4C R/B 3.3 21:15:39 10° NW 21:22:13 51° NE 21:29:38 10° ESE
Cosmos 2322 Rocket 2.9 21:16:43 10° SW 21:22:15 59° WNW 21:27:52 10° NNE
H-2A R/B 3.4 21:18:44 10° ESE 21:22:35 23° ENE 21:26:25 10° N
Cosmos 1862 Rocket 3.9 21:18:48 10° SSW 21:23:16 73° WNW 21:27:47 10° N
Okean 2 Rocket 3.6 21:20:40 10° N 21:25:01 43° ENE 21:29:12 11° SE
SeaSat 1 3.5 21:21:37 10° ESE 21:26:03 35° NE 21:30:31 10° NNW
ERS-1 Rocket 3.0 21:22:40 10° SSE 21:27:39 67° ENE 21:32:38 10° N
Cosmos 2360 Rocket 2.2 21:23:26 10° SSW 21:29:03 73° ESE 21:34:45 10° NNE
CENTAUR R/B 4.5 21:25:31 10° W 21:31:29 34° NNW 21:38:12 10° NE
SPOT 5 3.4 21:27:47 12° SE 21:31:52 39° ENE 21:36:04 10° N
ATLAS 5 CENTAUR R/B 3.6 21:27:58 10° NW 21:33:26 38° WSW 21:39:18 10° S
USA 186 4.3 21:32:26 10° SW 21:34:40 20° W 21:37:01 10° NW
COSMOS 2428 3.1 21:30:09 10° S 21:35:24 40° ESE 21:40:42 10° NE
Atlas Centaur 2 4.3 21:34:16 10° SSW 21:37:54 15° S 21:41:23 11° SSE
Cosmos 1606 4.0 21:37:46 15° SE 21:39:46 23° E 21:42:46 10° NE
Cosmos 1844 3.8 21:34:38 10° NNW 21:40:19 66° ENE 21:45:01 15° SE
Helios 1B rocket 2.9 21:38:37 10° N 21:42:42 63° WNW 21:46:45 10° SSW
NOAA 11 4.3 21:37:54 11° SSE 21:43:13 67° ENE 21:48:41 10° N
Cosmos 1703 Rocket 3.5 21:39:44 10° S 21:44:09 76° E 21:48:34 10° NNE
ARGOS 3.4 21:41:38 13° SE 21:46:13 55° ENE 21:51:29 10° N
YAOGAN 6 2.9 21:44:05 10° S 21:47:42 67° W 21:51:17 10° NNW
Cosmos 2322 3.7 21:43:52 10° SSW 21:49:35 87° ESE 21:55:20 10° NNE
NOSS 3-1 (C) 4.0 21:46:38 10° S 21:51:47 33° ESE 21:57:28 10° NE
Meteor 1-25 Rocket 4.2 21:46:49 10° NNW 21:52:27 89° E 21:57:53 11° S
SL-16 R/B 3.8 21:48:45 10° WSW 21:54:02 39° NW 21:59:22 10° NNE
Cosmos 1898 Rocket 4.4 21:52:38 10° N 21:57:23 35° NE 22:00:45 17° ESE
USA 229 DEB 3.6 21:51:50 10° SSW 21:58:39 76° SE 22:05:39 10° NE
USA 229 3.6 21:51:57 10° SSW 21:58:46 75° SE 22:05:45 10° NE
Meteor 1-20 Rocket 4.2 21:53:40 10° NNW 21:59:17 90° WSW 22:04:32 12° S
Cosmos 2151 Rocket 4.0 21:55:22 10° N 21:59:42 48° ENE 22:02:25 21° SE
Cosmos 1777 Rocket 4.4 21:56:15 10° NNW 22:01:29 61° WSW 22:06:11 12° S
MOS 1-B Rocket 3.9 21:56:47 15° SSE 22:01:32 71° ENE 22:07:08 10° NNW
Cosmos 1536 4.4 22:00:47 10° NNE 22:03:55 21° ENE 22:05:26 17° E
Cosmos 1844 Rocket 2.9 21:59:37 10° NNW 22:05:10 69° WSW 22:09:37 16° SSE
Cosmos 2237 Rocket 3.2 22:06:21 20° SE 22:08:46 27° ESE 22:13:26 10° NE
NOSS 3-1 (A) 4.1 22:03:58 10° S 22:09:07 32° ESE 22:14:47 10° NE
Abrixas rocket 2.4 22:06:09 10° W 22:09:22 51° SSW 22:10:33 32° SE
Cosmos 2278 Rocket 2.4 22:03:58 10° NNW 22:09:37 63° ENE 22:13:17 22° SE
Terra 2.9 22:07:06 19° ESE 22:09:38 32° ENE 22:13:50 10° N
SPOT 1/Viking Rocket 3.7 22:06:44 20° SSE 22:10:21 65° ENE 22:15:32 10° N
MetOp-A 4.3 22:06:04 13° S 22:10:51 76° WSW 22:16:15 10° NNW
Okean 1 Rocket 4.3 22:07:31 10° N 22:11:20 27° ENE 22:13:10 21° ESE
Cosmos 2333 4.2 22:06:13 10° SSW 22:11:53 66° ESE 22:17:38 10° NNE
Cosmos 2221 Rocket 3.8 22:09:26 10° SSW 22:13:50 73° WNW 22:18:18 10° N
Cosmos 2333 Rocket 2.7 22:10:05 14° S 22:14:35 39° ESE 22:19:55 10° NE
USA 267 3.5 22:09:01 10° ENE 22:15:34 73° NNW 22:22:05 10° WSW
YAOGAN 11 4.3 22:12:26 17° S 22:15:46 70° WSW 22:20:05 10° NNW
NOSS 0 Rocket 4.4 22:14:25 16° SSE 22:18:51 38° ESE 22:24:27 10° NE
Cosmos 1633 2.6 22:17:15 10° N 22:20:55 64° E 22:22:24 33° SSE
Meteor 2-6 Rocket 4.4 22:16:08 14° S 22:21:16 63° E 22:27:07 10° NNE
H-2A R/B 2.6 22:24:53 28° SE 22:26:45 46° ENE 22:30:58 10° N
ATLAS 3B R/B 3.8 22:24:10 10° NW 22:30:40 38° NNE 22:36:24 12° E
Cosmos 2219 Rocket 2.1 22:25:51 10° SSW 22:31:21 63° ESE 22:36:56 10° NE
USA 129 3.9 22:33:36 10° NNE 22:34:23 20° NNE 22:34:23 20° NNE
Cosmos 1782 3.1 22:35:37 16° SSW 22:38:46 66° WNW 22:42:46 10° N
Cosmos 1602 3.6 22:37:16 10° N 22:41:08 87° ENE 22:42:26 40° SSE
Cosmos 1300 Rocket 3.5 22:39:46 10° N 22:44:08 71° ENE 22:45:41 39° SSE
SL-08 R/B 4.4 22:42:50 10° N 22:49:02 89° W 22:52:34 27° S
Cosmos 1346 Rocket 2.7 22:50:06 42° S 22:51:22 77° E 22:55:23 10° NNE
SL-08 RB Rocket 4.4 22:49:28 23° SSW 22:52:04 50° W 22:56:30 10° NNW
Aureole 2 Rocket 3.4 22:53:30 26° NE 22:53:30 26° NE 22:54:57 10° NNE
USA 234 4.3 22:49:35 20° S 22:53:08 32° SW 22:58:55 10° WNW
Cosmos 1553 Rocket 3.9 22:50:50 23° S 22:54:54 79° E 23:01:06 10° NNE
Cosmos 2084 4.4 22:54:55 10° WNW 22:58:20 30° WSW 22:59:10 27° SSW
H-2A R/B 2.3 22:59:11 28° S 23:01:41 57° W 23:06:33 10° NNW
Cosmos 2298 Rocket 4.0 22:56:22 10° NNW 23:01:45 88° ENE 23:03:47 39° SSE
Cosmos 2369 Rocket 4.1 22:59:00 10° N 23:03:12 21° NE 23:07:11 11° E
SeaSat 1 3.1 23:01:20 29° S 23:03:29 47° WSW 23:08:16 10° NW
Cosmos 2297 3.7 23:01:26 10° NNW 23:07:12 78° ENE 23:09:23 39° SE
Meteor 1-27 Rocket 3.7 23:04:41 25° SSW 23:08:05 86° WNW 23:13:41 10° NNE
SPOT 5 4.4 23:07:01 15° SSW 23:10:03 28° W 23:13:59 10° NW
CZ-4C R/B 3.2 23:04:12 10° NW 23:11:04 57° WSW 23:14:50 31° S
Cosmos 1378 Rocket 3.6 23:11:55 53° SE 23:12:34 59° E 23:16:58 10° NNE
Cosmos 1937 Rocket 3.4 23:07:39 10° NNW 23:12:56 88° WSW 23:14:37 45° SSE
Cosmos 1570 Rocket 4.4 23:08:05 10° SW 23:13:18 64° WNW 23:18:37 10° NNE
Cosmos 2360 Rocket 4.4 23:08:54 10° W 23:13:38 27° NW 23:18:24 10° NNE
DMSP B5D2-2 4.0 23:10:00 10° NNE 23:15:19 85° ESE 23:17:40 35° SSW
Cosmos 1606 4.4 23:12:49 15° SW 23:15:25 31° WNW 23:18:50 10° N
COSMOS 2428 3.9 23:14:17 10° WSW 23:19:41 42° NW 23:25:07 10° NNE
Okean 3 3.3 23:19:19 64° SE 23:19:45 71° E 23:23:56 10° NNE
Cosmos 990 Rocket 3.9 23:14:40 10° NNW 23:19:51 89° ENE 23:21:18 49° SSE
Cosmos 1975 4.1 23:16:26 10° NNE 23:19:53 27° ENE 23:20:01 27° ENE
ATLAS CENTAUR R/B 2.7 23:22:04 26° ENE 23:22:04 26° ENE 23:24:14 10° NE
Cosmos 1544 Rocket 4.4 23:17:59 10° N 23:22:06 36° ENE 23:22:34 35° E
Cosmos 883 Rocket 4.5 23:20:00 39° SSE 23:22:13 65° E 23:28:17 10° NNE
SL-24 DEB 4.5 23:22:22 47° ESE 23:23:06 52° E 23:27:36 10° N
Cosmos 1980 3.7 23:21:32 20° SSW 23:25:36 83° WNW 23:31:18 10° NNE
Iridium 4 Rocket 3.3 23:21:38 10° N 23:25:44 59° W 23:26:45 45° SW
Meteor 2-11 Rocket 4.4 23:23:32 30° SSW 23:26:47 81° W 23:32:55 10° N
S3M 4.2 23:22:53 23° SSW 23:26:54 68° WNW 23:33:09 10° N
PSLV R/B 4.4 23:27:55 36° WNW 23:27:55 36° WNW 23:29:59 10° NNW
deb Chang Zheng 4 3.5 23:23:51 10° NNE 23:28:16 85° WNW 23:29:17 53° SSW
ASTEX 1 4.0 23:27:06 31° SSW 23:29:11 50° W 23:34:02 10° NNW
Cosmos 1709 Rocket 4.0 23:22:51 10° N 23:29:17 77° E 23:31:36 42° SSE
Cosmos 1340 3.7 23:32:06 35° ENE 23:32:06 35° ENE 23:34:55 10° NNE
IGS 5A 4.0 23:30:54 43° SW 23:31:40 50° W 23:35:44 10° NNW
SL-16 R/B 2.4 23:31:30 46° SE 23:32:20 50° ESE 23:37:49 10° NE
CARTOSAT-1 4.3 23:34:03 37° SW 23:35:02 44° W 23:39:12 10° NNW
Cosmos 2150 Rocket 4.4 23:30:05 10° NNW 23:35:26 58° WSW 23:37:01 42° SSW
Cosmos 1607 4.1 23:31:05 10° NW 23:37:26 69° NE 23:40:05 37° ESE
Cosmos 1898 Rocket 4.3 23:34:43 10° NW 23:39:33 40° WSW 23:41:02 33° SW
Cosmos 1500 3.9 23:36:45 10° N 23:40:15 44° ENE 23:40:15 44° ENE
Cosmos 1536 3.7 23:36:45 10° NNW 23:40:33 39° W 23:41:11 36° WSW
Cosmos 1763 Rocket 3.5 23:41:28 55° SE 23:42:04 58° ESE 23:47:17 10° NNE
NOSS 3-1 (C) 3.9 23:36:17 10° WSW 23:42:13 63° NW 23:49:01 10° NE
Cosmos 2292 Rocket 3.9 23:41:15 10° NNW 23:43:25 38° NW 23:43:25 38° NW
Terra 2.8 23:45:58 31° SW 23:47:18 38° W 23:51:45 10° NNW
CZ-2C R/B 3.9 23:44:00 10° NE 23:48:39 27° E 23:48:53 27° E
Cosmos 1125 Rocket 3.8 23:43:27 10° NNW 23:48:45 60° ENE 23:49:56 48° ESE
Okean 1 Rocket 4.2 23:45:14 10° NNW 23:49:20 36° W 23:50:22 32° WSW
Cosmos 1455 Rocket 3.2 23:46:29 10° N 23:50:54 58° ENE 23:51:05 57° E
Cosmos 2237 Rocket 2.7 23:48:05 17° SW 23:52:27 60° WNW 23:58:07 10° NNE
Cosmos 2278 Rocket 3.7 23:48:44 10° NW 23:53:16 25° WSW 23:55:08 21° SW
CZ-4C R/B 3.7 23:55:58 51° WNW 23:55:58 51° WNW 23:59:10 10° NNW
Okean 1 4.1 23:56:48 41° ENE 23:56:48 41° ENE 23:59:56 10° NNE
